TimeCDT,TemperatureF,Dew PointF,Humidity,Sea Level PressureIn,VisibilityMPH,Wind Direction,Wind SpeedMPH,Gust SpeedMPH,PrecipitationIn,Events,Conditions,WindDirDegrees,DateUTC
12:53 AM,64.9,60.1,84,29.99,10.0,NW,5.8,-,N/A,,Clear,320,2013-04-29 05:53:00
1:53 AM,64.9,60.1,84,29.99,10.0,NW,4.6,-,N/A,,Overcast,320,2013-04-29 06:53:00
2:53 AM,64.0,60.1,87,29.97,10.0,Calm,Calm,-,N/A,,Overcast,0,2013-04-29 07:53:00
3:53 AM,64.0,60.1,87,29.98,10.0,Calm,Calm,-,N/A,,Overcast,0,2013-04-29 08:53:00
4:53 AM,63.0,60.1,90,29.98,10.0,Calm,Calm,-,N/A,,Scattered Clouds,0,2013-04-29 09:53:00
5:53 AM,62.1,60.1,93,30.00,7.0,NW,3.5,-,N/A,,Overcast,310,2013-04-29 10:53:00
6:53 AM,63.0,60.1,90,29.99,7.0,Calm,Calm,-,N/A,,Mostly Cloudy,0,2013-04-29 11:53:00
7:14 AM,64.4,60.8,88,30.01,7.0,NNW,3.5,-,N/A,,Mostly Cloudy,330,2013-04-29 12:14:00
7:24 AM,64.4,60.8,88,30.01,5.0,Calm,Calm,-,N/A,,Mostly Cloudy,0,2013-04-29 12:24:00
7:53 AM,66.0,61.0,84,30.01,7.0,Calm,Calm,-,N/A,,Mostly Cloudy,0,2013-04-29 12:53:00
8:11 AM,66.2,60.8,83,30.02,10.0,Calm,Calm,-,N/A,,Mostly Cloudy,0,2013-04-29 13:11:00
8:38 AM,69.8,62.6,78,30.01,10.0,Calm,Calm,-,N/A,,Partly Cloudy,0,2013-04-29 13:38:00
8:53 AM,70.0,60.1,71,30.01,10.0,Calm,Calm,-,N/A,,Clear,0,2013-04-29 13:53:00
9:53 AM,73.9,61.0,64,30.02,10.0,NW,3.5,-,N/A,,Clear,320,2013-04-29 14:53:00
10:53 AM,75.9,60.1,58,30.03,10.0,NW,4.6,-,N/A,,Scattered Clouds,320,2013-04-29 15:53:00
11:53 AM,78.1,55.9,46,30.01,10.0,WNW,10.4,-,N/A,,Clear,300,2013-04-29 16:53:00
12:53 PM,79.0,55.0,44,29.99,10.0,NNW,9.2,-,N/A,,Partly Cloudy,330,2013-04-29 17:53:00
1:53 PM,80.1,55.0,42,29.97,10.0,Variable,5.8,-,N/A,,Clear,0,2013-04-29 18:53:00
2:53 PM,81.0,55.0,41,29.95,10.0,West,8.1,-,N/A,,Scattered Clouds,270,2013-04-29 19:53:00
3:53 PM,82.0,55.0,39,29.92,10.0,North,8.1,-,N/A,,Partly Cloudy,350,2013-04-29 20:53:00
4:53 PM,80.1,53.1,39,29.92,10.0,West,6.9,-,N/A,,Partly Cloudy,260,2013-04-29 21:53:00
5:53 PM,79.0,52.0,39,29.92,10.0,Calm,Calm,-,N/A,,Clear,0,2013-04-29 22:53:00
6:53 PM,75.9,54.0,46,29.92,10.0,WSW,3.5,-,N/A,,Clear,250,2013-04-29 23:53:00
7:53 PM,70.0,55.0,59,29.94,10.0,Calm,Calm,-,N/A,,Clear,0,2013-04-30 00:53:00
8:53 PM,66.0,55.9,70,29.95,10.0,Calm,Calm,-,N/A,,Clear,0,2013-04-30 01:53:00
9:53 PM,64.0,55.9,75,29.96,10.0,Calm,Calm,-,N/A,,Clear,0,2013-04-30 02:53:00
10:53 PM,63.0,55.9,78,29.96,10.0,Calm,Calm,-,N/A,,Partly Cloudy,0,2013-04-30 03:53:00
11:53 PM,63.0,57.9,84,29.95,10.0,South,4.6,-,N/A,,Clear,190,2013-04-30 04:53:00